User: anonymous   Login
Location: Banksville Park
(38.5557°N, 75.1182°W)
Time: 11:18:16
(UTC+00:00)
Language:

BREEZE-M DEB (TANK) - Orbit

View from above orbital plane
View from above orbital plane
View from above satellite
View from above satellite

Ground track
Ground track

The orbit data is extracted from the following two-line orbital elements,

1 34712U 09016C   20337.18974357  .00002006  00000-0  37963-3 0  9991
2 34712  46.0836 303.5871 5048858 168.4087 210.1466  5.53747906229891
Epoch (UTC): 02 December 2020 04:33:13
Eccentricity: 0.5048858
inclination: 46.0836°
perigee height: 304 km
apogee height: 13931 km
right ascension of ascending node: 303.5871°
argument of perigee: 168.4087°
revolutions per day: 5.53747906
mean anomaly at epoch: 210.1466°
orbit number at epoch: 22989

The dashed part of the orbit path shows where the satellite is in the earth's shadow,  

DLR